{"data":{"norad_id":48010,"intl_designator":"2021-024AK","name":"STARLINK-2226","alt_names":[],"object_type":"PAYLOAD","status":"ACTIVE","operator":null,"country":"US","launch_date":"2021-03-24","launch_site_code":"AFETR","launch_vehicle":null,"mission":null,"orbit_class":"UNKNOWN","rcs_meters":null,"size_class":null,"mass_kg":null,"dimensions":null,"purposes":["comms"],"wikipedia_slug":null,"has_3d_model":false,"image_url":null,"decayed_at":null,"tle_current":{"epoch":"2026-05-24T12:51:43.483680Z","epoch_age_seconds":125318,"freshness":"FRESH","line1":"1 48010U 21024AK  26144.53591995  .00004035  00000+0  14173-3 0  9995","line2":"2 48010  53.1614 339.9114 0001364  85.2282 274.8875 15.31696252286182","mean_motion":15.31696252,"eccentricity":0.0001364,"inclination_deg":53.1614,"raan_deg":339.9114,"arg_perigee_deg":85.2282,"mean_anomaly_deg":274.8875,"bstar":0.00014173,"rev_number":28618,"period_min":94.013418007632,"perigee_km":469.81697949531,"apogee_km":471.68535618749,"semimajor_km":6848.8881678414,"source":"CELESTRAK","updated_at":"2026-05-25T13:38:16.639687Z"}}}